Joliet, IL

6:15 PM CDT on August 25, 2016 (GMT -0500)
Joliet Regional

Weather History for KJOT - November, 2014

Change the Weather History Date:

Saturday, November 1, 2014

  Actual Average (KLOT) Record (KLOT)
Temperature  
Mean Temperature 34 °F 47 °F  
Max Temperature 44 °F 56 °F 76 °F (2000)
Min Temperature 25 °F 39 °F 23 °F (1996)
Degree Days  
Heating Degree Days 30 18  
Month to date heating degree days 18  
Since 1 July heating degree days 505  
Cooling Degree Days 0 0  
Month to date cooling degree days 0  
Year to date cooling degree days 862  
Moisture  
Dew Point 25 °F    
Average Humidity 64    
Maximum Humidity 94    
Minimum Humidity 49    
Precipitation  
Precipitation 0.00 in 0.12 in 1.43 in (1992)
Month to date precipitation 0.12  
Year to date precipitation 34.48  
Snow  
Snow 0.00 in 0.00 in 0.00 in (2011)
Month to date snowfall 0.0  
Since 1 July snowfall 0.0  
Since 1 September snowfall 0.0  
Snow Depth -    
Sea Level Pressure  
Sea Level Pressure 30.40 in    
Wind  
Wind Speed 8 mph (North)    
Max Wind Speed 15 mph    
Max Gust Speed 22 mph    
Visibility 10 miles    
Events      
T = Trace of Precipitation, MM = Missing Value Source: NWS Daily Summary

Daily Weather History Graph

Daily Weather History Graph

Search for Another Location

Airport or City:

Trip Planner

Search our weather history database for the weather conditions in past years. The results will help you decide how hot, cold, wet, or windy it might be!

Date:

Astronomy

Nov. 01, 2014 Rise Set
Actual Time 7:24 AM CDT 5:47 PM CDT
Civil Twilight 6:55 AM CDT 6:16 PM CDT
Nautical Twilight 6:22 AM CDT 6:49 PM CDT
Astronomical Twilight 5:50 AM CDT 7:21 PM CDT
Moon 2:45 PM CDT (11/1) 1:15 AM CDT (11/1)
Length of Visible Light 11h 20m
Length of Day
10h 23m
Waxing Gibbous, 68% of the Moon is Illuminated
Nov 1
Waxing Gibbous
Nov 6
Full
Nov 14
Last Quarter
Nov 22
New
Nov 29
First Quarter

Hourly Weather History & Observations

Time (CDT) Temp. Windchill Dew Point Humidity Pressure Visibility Wind Dir Wind Speed Gust Speed Precip Events Conditions
12:15 AM 35.6 °F 27.1 °F 20.3 °F 54% 30.34 in 10.0 mi North 12.7 mph 17.3 mph N/A   Overcast
12:35 AM 35.6 °F 26.6 °F 21.2 °F 56% 30.34 in 10.0 mi North 13.8 mph 21.9 mph N/A   Overcast
12:55 AM 35.6 °F 26.6 °F 21.2 °F 56% 30.35 in 10.0 mi North 13.8 mph 19.6 mph N/A   Overcast
1:15 AM 35.4 °F 26.4 °F 20.3 °F 54% 30.35 in 10.0 mi North 13.8 mph 21.9 mph N/A   Overcast
1:35 AM 35.2 °F 28.1 °F 21.2 °F 57% 30.35 in 10.0 mi North 9.2 mph 17.3 mph N/A   Overcast
1:55 AM 35.1 °F 26.9 °F 21.2 °F 57% 30.35 in 10.0 mi North 11.5 mph 19.6 mph N/A   Overcast
2:15 AM 34.9 °F 27.1 °F 21.0 °F 57% 30.35 in 10.0 mi North 10.4 mph 18.4 mph N/A   Overcast
2:35 AM 34.7 °F 26.4 °F 21.4 °F 58% 30.35 in 10.0 mi North 11.5 mph 16.1 mph N/A   Overcast
2:55 AM 35.2 °F 27.1 °F 21.6 °F 58% 30.35 in 10.0 mi North 11.5 mph 19.6 mph N/A   Overcast
3:15 AM 34.9 °F 27.1 °F 22.3 °F 60% 30.35 in 10.0 mi North 10.4 mph - N/A   Overcast
3:35 AM 34.9 °F 26.6 °F 22.1 °F 60% 30.35 in 10.0 mi North 11.5 mph 18.4 mph N/A   Overcast
3:55 AM 34.7 °F 26.9 °F 22.6 °F 61% 30.35 in 10.0 mi North 10.4 mph - N/A   Overcast
4:15 AM 34.3 °F 26.5 °F 22.8 °F 63% 30.36 in 10.0 mi North 10.4 mph - N/A   Mostly Cloudy
4:35 AM 34.7 °F 28.1 °F 23.0 °F 62% 30.36 in 10.0 mi North 8.1 mph - N/A   Overcast
4:55 AM 34.7 °F 26.9 °F 23.0 °F 62% 30.37 in 10.0 mi North 10.4 mph - N/A   Overcast
5:15 AM 34.7 °F 28.1 °F 23.7 °F 64% 30.37 in 10.0 mi North 8.1 mph - N/A   Overcast
5:35 AM 34.3 °F 28.4 °F 23.5 °F 65% 30.38 in 10.0 mi NNW 6.9 mph - N/A   Overcast
5:55 AM 33.8 °F 27.7 °F 23.0 °F 65% 30.39 in 10.0 mi NNW 6.9 mph - N/A   Mostly Cloudy
6:15 AM 33.4 °F 26.6 °F 23.0 °F 66% 30.39 in 10.0 mi NNW 8.1 mph - N/A   Mostly Cloudy
6:35 AM 33.1 °F 27.7 °F 23.0 °F 66% 30.40 in 10.0 mi NNW 5.8 mph - N/A   Mostly Cloudy
6:55 AM 32.9 °F 28.5 °F 23.4 °F 68% 30.40 in 10.0 mi NNW 4.6 mph - N/A   Mostly Cloudy
7:15 AM 33.4 °F 28.1 °F 23.7 °F 68% 30.41 in 10.0 mi NNW 5.8 mph - N/A   Mostly Cloudy
7:35 AM 33.3 °F 28.9 °F 23.5 °F 68% 30.41 in 10.0 mi NNW 4.6 mph - N/A   Mostly Cloudy
7:55 AM 32.9 °F 28.5 °F 23.7 °F 69% 30.42 in 10.0 mi NNW 4.6 mph - N/A   Scattered Clouds
8:15 AM 33.6 °F 28.4 °F 24.4 °F 69% 30.42 in 10.0 mi NNW 5.8 mph - N/A   Mostly Cloudy
8:35 AM 35.1 °F 29.3 °F 25.3 °F 68% 30.43 in 10.0 mi North 6.9 mph - N/A   Overcast
8:55 AM 36.0 °F 31.1 °F 25.7 °F 66% 30.43 in 10.0 mi North 5.8 mph - N/A   Overcast
9:15 AM 37.0 °F 32.4 °F 26.2 °F 65% 30.44 in 10.0 mi North 5.8 mph - N/A   Mostly Cloudy
9:35 AM 38.3 °F 33.2 °F 27.0 °F 64% 30.44 in 10.0 mi North 6.9 mph - N/A   Overcast
9:55 AM 39.2 °F 32.5 °F 27.1 °F 62% 30.44 in 10.0 mi NNE 10.4 mph - N/A   Overcast
10:15 AM 38.8 °F 31.2 °F 25.3 °F 58% 30.44 in 10.0 mi NE 12.7 mph 20.7 mph N/A   Overcast
10:35 AM 40.8 °F 32.9 °F 25.9 °F 55% 30.44 in 10.0 mi ENE 15.0 mph 20.7 mph N/A   Overcast
10:55 AM 40.5 °F 32.5 °F 25.9 °F 56% 30.44 in 10.0 mi ENE 15.0 mph 19.6 mph N/A   Scattered Clouds
11:15 AM 40.5 °F 34.1 °F 26.1 °F 57% 30.45 in 10.0 mi NNE 10.4 mph 18.4 mph N/A   Clear
11:35 AM 41.4 °F 34.3 °F 27.0 °F 57% 30.45 in 10.0 mi NE 12.7 mph 17.3 mph N/A   Clear
11:55 AM 41.9 °F 35.9 °F 26.4 °F 54% 30.45 in 10.0 mi ENE 10.4 mph - N/A   Clear
12:15 PM 42.4 °F 37.5 °F 26.8 °F 54% 30.44 in 10.0 mi ENE 8.1 mph 18.4 mph N/A   Clear
12:35 PM 41.0 °F 34.7 °F 26.6 °F 57% 30.44 in 10.0 mi North 10.4 mph 16.1 mph N/A   Scattered Clouds
12:55 PM 42.8 °F 38.0 °F 26.6 °F 53% 30.43 in 10.0 mi NE 8.1 mph - N/A   Scattered Clouds
1:15 PM 42.6 °F 38.4 °F 26.6 °F 53% 30.42 in 10.0 mi ENE 6.9 mph 16.1 mph N/A   Scattered Clouds
1:35 PM 42.6 °F 39.0 °F 26.2 °F 52% 30.41 in 10.0 mi NNE 5.8 mph - N/A   Clear
1:55 PM 42.8 °F 39.3 °F 25.9 °F 51% 30.41 in 10.0 mi NNE 5.8 mph - N/A   Clear
2:15 PM 43.7 °F 39.7 °F 27.7 °F 53% 30.40 in 10.0 mi NNE 6.9 mph - N/A   Clear
2:35 PM 43.7 °F 39.7 °F 26.8 °F 51% 30.40 in 10.0 mi North 6.9 mph - N/A   Clear
2:55 PM 43.3 °F - 27.1 °F 53% 30.40 in 10.0 mi Calm Calm - N/A   Clear
3:15 PM 43.3 °F 39.9 °F 25.9 °F 50% 30.40 in 10.0 mi NNE 5.8 mph - N/A   Clear
3:35 PM 43.3 °F 39.2 °F 25.3 °F 49% 30.40 in 10.0 mi North 6.9 mph - N/A   Clear
3:55 PM 42.8 °F 40.1 °F 26.6 °F 53% 30.40 in 10.0 mi NNE 4.6 mph - N/A   Clear
4:15 PM 43.0 °F - 25.9 °F 51% 30.41 in 10.0 mi Calm Calm - N/A   Clear
4:35 PM 42.8 °F 39.3 °F 25.9 °F 51% 30.40 in 10.0 mi NE 5.8 mph - N/A   Clear
4:55 PM 42.1 °F 40.2 °F 25.9 °F 53% 30.40 in 10.0 mi NNE 3.5 mph - N/A   Clear
5:15 PM 41.4 °F 38.4 °F 25.5 °F 53% 30.40 in 10.0 mi North 4.6 mph - N/A   Clear
5:35 PM 40.5 °F 38.4 °F 25.3 °F 55% 30.40 in 10.0 mi NE 3.5 mph - N/A   Clear
5:55 PM 39.2 °F 37.0 °F 24.8 °F 56% 30.39 in 10.0 mi East 3.5 mph - N/A   Clear
6:15 PM 35.8 °F 33.0 °F 25.0 °F 65% 30.39 in 10.0 mi ENE 3.5 mph - N/A   Clear
6:35 PM 34.2 °F - 25.2 °F 70% 30.39 in 10.0 mi Calm Calm - N/A   Clear
6:55 PM 33.8 °F - 25.7 °F 72% 30.40 in 10.0 mi Calm Calm - N/A   Clear
7:15 PM 33.4 °F - 26.1 °F 74% 30.40 in 10.0 mi Calm Calm - N/A   Clear
7:35 PM 32.0 °F - 27.0 °F 82% 30.40 in 10.0 mi Calm Calm - N/A   Clear
7:55 PM 32.4 °F - 25.9 °F 77% 30.40 in 10.0 mi Calm Calm - N/A   Clear
8:15 PM 30.6 °F - 25.2 °F 80% 30.39 in 10.0 mi Calm Calm - N/A   Clear
8:35 PM 31.3 °F - 25.7 °F 80% 30.40 in 10.0 mi Calm Calm - N/A   Clear
8:55 PM 31.6 °F - 26.2 °F 80% 30.41 in 10.0 mi Calm Calm - N/A   Clear
9:15 PM 28.2 °F - 25.5 °F 90% 30.41 in 10.0 mi Calm Calm - N/A   Clear
9:35 PM 28.9 °F - 25.3 °F 86% 30.41 in 10.0 mi Calm Calm - N/A   Clear
9:55 PM 27.9 °F - 25.7 °F 92% 30.40 in 10.0 mi Calm Calm - N/A   Clear
10:15 PM 28.6 °F - 25.9 °F 90% 30.40 in 10.0 mi Calm Calm - N/A   Clear
10:35 PM 28.6 °F - 25.5 °F 88% 30.41 in 10.0 mi Calm Calm - N/A   Clear
10:55 PM 26.1 °F - 22.6 °F 87% 30.40 in 10.0 mi Calm Calm - N/A   Clear
11:15 PM 27.9 °F - 25.3 °F 90% 30.41 in 10.0 mi Calm Calm - N/A   Clear
11:35 PM 28.6 °F - 26.1 °F 90% 30.42 in 10.0 mi Calm Calm - N/A   Clear
11:55 PM 25.3 °F - 23.9 °F 94% 30.42 in 10.0 mi Calm Calm - N/A   Clear